TJS-14

Last updated on Mon Sep 07 2026 00:03:02 GMT+0000 (Coordinated Universal Time)

1 62804U 25017A 26249.59537501 .00000099 00000+0 00000+0 0 9999 2 62804 0.6114 303.4179 0003443 317.0618 317.9236 1.00272162 6087
UTC large
Height (km)
Speed (km/s)
/
Latitude / Longitude
Inclination (degrees)
Orbital Period (minutes)
Azimuth
Elevation
Range (km)
Doppler Factor

Next 0 passes for location: London (51.5072 / 0.1276)

No passes found over London.
TJS-14